This demonstration page uses our WeatherBlox Daily Observations layout. Learn more.

Left ArrowRight Arrow

36.19886, -115.1175

Hourly Observations for November 17, 2015

Temp ( °F °C ) Dew Point ( °F °C ) Humidity (%) Winds ( mph kmh ) Pressure ( in mb ) Visibility ( mi km ) Precip ( " mm )
12:53 am 00:53 Clear 46 7.8 7 -13.9 20 20 NNW 25 41 30.19 1022 10 16 0.00 0.00
1:53 am 01:53 Clear 45 7.2 8 -13.3 22 22 NNW 24 39 30.21 1023 10 16 0.00 0.00
2:53 am 02:53 Clear 45 7.2 7 -13.9 21 21 N 17 28 30.23 1024 10 16 0.00 0.00
3:53 am 03:53 Clear 44 6.7 7 -13.9 22 22 NE 12 19 30.23 1024 10 16 0.00 0.00
4:53 am 04:53 Clear 43 6.1 7 -13.9 22 22 N 16 26 30.25 1024 10 16 0.00 0.00
5:53 am 05:53 Clear 44 6.7 5 -15 20 20 NNE 12 19 30.26 1025 10 16 0.00 0.00
6:53 am 06:53 Sunny 42 5.6 6 -14.4 22 22 NW 17 28 30.28 1025 10 16 0.00 0.00
7:00 am 07:00 Sunny 43 6 7 -14 22 22 NW 16 26 30.24 1024 10 16 0.00 0.00
7:53 am 07:53 Sunny 45 7.2 6 -14.4 20 20 WNW 7 11 30.30 1026 10 16 0.00 0.00
8:53 am 08:53 Sunny 49 9.4 5 -15 16 16 NNW 9 15 30.31 1026 10 16 0.00 0.00
9:53 am 09:53 Sunny 53 11.7 4 -15.6 13 13 N 6 9 30.32 1027 10 16 0.00 0.00
10:53 am 10:53 Sunny 53 11.7 6 -14.4 15 15 SSE 5 7 30.29 1026 10 16 0.00 0.00
11:53 am 11:53 Sunny 56 13.3 6 -14.4 13 13 Calm 30.27 1025 10 16 0.00 0.00
12:53 pm 12:53 Sunny 57 13.9 8 -13.3 14 14 SSE 7 11 30.24 1024 10 16 0.00 0.00
1:53 pm 13:53 Sunny 58 14.4 9 -12.8 14 14 SSE 8 13 30.23 1024 10 16 0.00 0.00
2:53 pm 14:53 Sunny 58 14.4 10 -12.2 15 15 SSE 8 13 30.22 1024 10 16 0.00 0.00
3:53 pm 15:53 Sunny 57 13.9 10 -12.2 15 15 SSE 9 15 30.22 1023 10 16 0.00 0.00
4:53 pm 16:53 Clear 55 12.8 11 -11.7 17 17 SSE 5 7 30.22 1024 10 16 0.00 0.00
5:53 pm 17:53 Clear 54 12.2 11 -11.7 18 18 Calm 30.23 1024 10 16 0.00 0.00
6:53 pm 18:53 Clear 52 11.1 15 -9.4 23 23 NE 5 7 30.23 1024 10 16 0.00 0.00
7:53 pm 19:53 Clear 50 10 16 -8.9 26 26 Calm 30.21 1023 10 16 0.00 0.00
8:53 pm 20:53 Clear 50 10 19 -7.2 29 29 NW 5 7 30.21 1023 10 16 0.00 0.00
9:53 pm 21:53 Clear 47 8.3 21 -6.1 36 36 NW 7 11 30.20 1023 10 16 0.00 0.00
10:53 pm 22:53 Clear 47 8.3 19 -7.2 33 33 WNW 6 9 30.17 1022 10 16 0.00 0.00
11:53 pm 23:53 Clear 46 7.8 20 -6.7 35 35 WSW 5 7 30.16 1022 10 16 0.00 0.00

Powered by AerisWeather